| time (UTC) | temp F | wind direction | speed MPH | gust MPH | rain 1hr in | rain 24hr in | rain mn in | humidity % | barometer mb |
| 20260905033517 | 62 | 248 | 2.0 | 6.0 | 0.00 | 0.00 | 0.00 | 65 | 1017.8 |
| 20260905032036 | 62 | 338 | 2.0 | 5.0 | 0.00 | 0.00 | 0.00 | 65 | 1017.7 |
| 20260905030516 | 61 | 338 | 1.0 | 3.0 | 0.00 | 0.00 | 0.00 | 65 | 1017.4 |
| 20260905025016 | 61 | 0.0 | 2.0 | 0.00 | 0.00 | 0.00 | 66 | 1017.2 | |
| 20260905023516 | 62 | 0.0 | 2.0 | 0.00 | 0.00 | 0.00 | 63 | 1017.3 | |
| 20260905022056 | 63 | 23 | 1.0 | 4.0 | 0.00 | 0.00 | 0.00 | 62 | 1017.0 |
| 20260905020516 | 63 | 248 | 2.0 | 4.0 | 0.00 | 0.00 | 0.00 | 62 | 1017.0 |
| 20260905015016 | 64 | 180 | 1.0 | 4.0 | 0.00 | 0.00 | 0.00 | 62 | 1016.8 |
| 20260905013516 | 64 | 90 | 2.0 | 3.0 | 0.00 | 0.00 | 0.00 | 61 | 1016.6 |
| 20260905012016 | 65 | 45 | 1.0 | 2.0 | 0.00 | 0.00 | 0.00 | 61 | 1016.6 |
| 20260905010516 | 65 | 45 | 1.0 | 4.0 | 0.00 | 0.00 | 0.00 | 63 | 1016.4 |
| 20260905005016 | 66 | 68 | 2.0 | 4.0 | 0.00 | 0.00 | 0.00 | 58 | 1016.3 |
| 20260905003516 | 65 | 45 | 2.0 | 7.0 | 0.00 | 0.00 | 0.00 | 62 | 1016.1 |
| 20260905002016 | 65 | 45 | 3.0 | 7.0 | 0.00 | 0.00 | 0.00 | 64 | 1015.9 |
| 20260905000516 | 65 | 23 | 2.0 | 5.0 | 0.00 | 0.00 | 0.00 | 61 | 1015.9 |
| 20260904235016 | 66 | 45 | 2.0 | 7.0 | 0.00 | 0.00 | 0.00 | 61 | 1015.8 |
| 20260904233516 | 65 | 45 | 4.0 | 7.0 | 0.00 | 0.00 | 0.00 | 61 | 1015.7 |
| 20260904232036 | 65 | 45 | 4.0 | 11.0 | 0.00 | 0.00 | 0.00 | 62 | 1015.7 |
| 20260904230516 | 67 | 45 | 3.0 | 6.0 | 0.00 | 0.00 | 0.00 | 60 | 1015.7 |
| 20260904225016 | 67 | 23 | 3.0 | 9.0 | 0.00 | 0.00 | 0.00 | 61 | 1015.8 |
| 20260904223516 | 66 | 45 | 5.0 | 11.0 | 0.00 | 0.00 | 0.00 | 59 | 1015.6 |
| 20260904222016 | 67 | 23 | 4.0 | 8.0 | 0.00 | 0.00 | 0.00 | 58 | 1015.5 |
| 20260904220536 | 67 | 23 | 4.0 | 9.0 | 0.00 | 0.00 | 0.00 | 60 | 1015.4 |
| 20260904215056 | 65 | 135 | 2.0 | 5.0 | 0.00 | 0.00 | 0.00 | 60 | 1015.3 |
| 20260904213515 | 64 | 113 | 2.0 | 4.0 | 0.00 | 0.00 | 0.00 | 62 | 1015.4 |
| 20260904212016 | 63 | 135 | 2.0 | 4.0 | 0.00 | 0.00 | 0.00 | 64 | 1015.2 |
| 20260904210515 | 63 | 158 | 3.0 | 4.0 | 0.00 | 0.00 | 0.00 | 63 | 1015.0 |
| 20260904205016 | 63 | 158 | 2.0 | 5.0 | 0.00 | 0.00 | 0.00 | 63 | 1015.1 |
| 20260904203516 | 64 | 23 | 3.0 | 5.0 | 0.00 | 0.00 | 0.00 | 62 | 1015.1 |
| 20260904202016 | 65 | 23 | 2.0 | 5.0 | 0.00 | 0.00 | 0.00 | 63 | 1015.0 |
| 20260904200515 | 64 | 113 | 2.0 | 5.0 | 0.00 | 0.00 | 0.00 | 67 | 1014.9 |
| 20260904195015 | 64 | 90 | 2.0 | 8.0 | 0.00 | 0.00 | 0.00 | 65 | 1015.1 |
| 20260904193515 | 64 | 90 | 2.0 | 4.0 | 0.00 | 0.01 | 0.00 | 64 | 1015.1 |
| 20260904192015 | 62 | 23 | 2.0 | 5.0 | 0.00 | 0.02 | 0.00 | 68 | 1015.5 |
| 20260904190515 | 61 | 68 | 2.0 | 5.0 | 0.00 | 0.06 | 0.00 | 70 | 1015.6 |
| 20260904185015 | 60 | 68 | 2.0 | 4.0 | 0.00 | 0.09 | 0.00 | 71 | 1015.6 |
| 20260904183515 | 60 | 68 | 2.0 | 6.0 | 0.00 | 0.11 | 0.00 | 72 | 1015.5 |
| 20260904182015 | 59 | 45 | 2.0 | 4.0 | 0.00 | 0.13 | 0.00 | 72 | 1015.5 |
| 20260904180515 | 59 | 68 | 2.0 | 5.0 | 0.00 | 0.13 | 0.00 | 73 | 1015.4 |
| 20260904175015 | 59 | 45 | 2.0 | 5.0 | 0.00 | 0.14 | 0.00 | 73 | 1015.5 |
| 20260904173515 | 59 | 23 | 3.0 | 7.0 | 0.00 | 0.16 | 0.00 | 73 | 1015.4 |
| 20260904172017 | 59 | 45 | 4.0 | 6.0 | 0.00 | 0.19 | 0.00 | 72 | 1015.0 |
| 20260904170517 | 59 | 45 | 2.0 | 4.0 | 0.00 | 0.21 | 0.00 | 72 | 1015.1 |
| 20260904165017 | 59 | 23 | 2.0 | 5.0 | 0.00 | 0.23 | 0.00 | 73 | 1015.0 |
| 20260904163517 | 58 | 23 | 2.0 | 5.0 | 0.00 | 0.25 | 0.00 | 71 | 1014.9 |
| 20260904162017 | 58 | 45 | 1.0 | 3.0 | 0.00 | 0.29 | 0.00 | 72 | 1014.6 |
| 20260904160517 | 57 | 45 | 1.0 | 2.0 | 0.00 | 0.33 | 0.00 | 73 | 1014.5 |
| 20260904155017 | 57 | 23 | 2.0 | 3.0 | 0.00 | 0.34 | 0.00 | 74 | 1014.4 |
| 20260904153517 | 57 | 0.0 | 2.0 | 0.00 | 0.34 | 0.00 | 70 | 1014.4 | |
| 20260904152017 | 56 | 23 | 2.0 | 4.0 | 0.00 | 0.34 | 0.00 | 68 | 1014.1 |
| 20260904150517 | 56 | 293 | 2.0 | 3.0 | 0.00 | 0.34 | 0.00 | 70 | 1014.0 |
| 20260904145037 | 56 | 338 | 1.0 | 3.0 | 0.00 | 0.34 | 0.00 | 72 | 1014.0 |
| 20260904143517 | 56 | 338 | 1.0 | 3.0 | 0.00 | 0.34 | 0.00 | 70 | 1013.8 |
| 20260904142017 | 56 | 0.0 | 2.0 | 0.00 | 0.34 | 0.00 | 70 | 1013.7 | |
| 20260904140537 | 55 | 0 | 2.0 | 4.0 | 0.00 | 0.34 | 0.00 | 70 | 1013.3 |
| 20260904135017 | 55 | 0 | 1.0 | 2.0 | 0.00 | 0.34 | 0.00 | 70 | 1013.0 |
| 20260904133516 | 55 | 0 | 2.0 | 5.0 | 0.00 | 0.34 | 0.00 | 69 | 1012.9 |
| 20260904132017 | 55 | 338 | 2.0 | 4.0 | 0.00 | 0.34 | 0.00 | 70 | 1013.0 |
| 20260904130517 | 55 | 0 | 1.0 | 3.0 | 0.00 | 0.34 | 0.00 | 72 | 1012.9 |
| 20260904125016 | 55 | 0.0 | 2.0 | 0.00 | 0.34 | 0.00 | 72 | 1013.0 | |
| 20260904123516 | 55 | 0.0 | 1.0 | 0.00 | 0.34 | 0.00 | 71 | 1012.8 | |
| 20260904122016 | 55 | 338 | 1.0 | 2.0 | 0.00 | 0.34 | 0.00 | 71 | 1012.8 |
| 20260904120516 | 55 | 338 | 1.0 | 2.0 | 0.00 | 0.34 | 0.00 | 71 | 1012.8 |
| 20260904115017 | 55 | 315 | 1.0 | 4.0 | 0.00 | 0.34 | 0.00 | 70 | 1012.7 |
| 20260904113517 | 55 | 338 | 2.0 | 4.0 | 0.00 | 0.34 | 0.00 | 69 | 1012.4 |
| 20260904112016 | 55 | 0 | 3.0 | 5.0 | 0.00 | 0.34 | 0.00 | 70 | 1012.5 |
| 20260904110516 | 55 | 338 | 4.0 | 8.0 | 0.00 | 0.34 | 0.00 | 69 | 1012.6 |
| 20260904105016 | 56 | 270 | 2.0 | 4.0 | 0.00 | 0.34 | 0.00 | 71 | 1012.6 |
| 20260904103516 | 55 | 248 | 2.0 | 4.0 | 0.00 | 0.34 | 0.00 | 73 | 1012.4 |
| 20260904102016 | 56 | 270 | 1.0 | 3.0 | 0.00 | 0.34 | 0.00 | 71 | 1012.5 |
| 20260904100516 | 55 | 293 | 1.0 | 3.0 | 0.00 | 0.34 | 0.00 | 71 | 1012.2 |
| 20260904095016 | 55 | 0 | 3.0 | 5.0 | 0.00 | 0.34 | 0.00 | 71 | 1012.1 |
| 20260904093516 | 56 | 0 | 2.0 | 4.0 | 0.00 | 0.34 | 0.00 | 70 | 1012.0 |
| 20260904092016 | 56 | 338 | 2.0 | 5.0 | 0.00 | 0.34 | 0.00 | 69 | 1012.1 |
| 20260904090516 | 56 | 0 | 2.0 | 5.0 | 0.00 | 0.34 | 0.00 | 71 | 1011.9 |
| 20260904085036 | 56 | 0 | 1.0 | 4.0 | 0.00 | 0.34 | 0.00 | 71 | 1012.0 |
| 20260904083516 | 57 | 0 | 2.0 | 3.0 | 0.00 | 0.34 | 0.00 | 70 | 1011.9 |
| 20260904082016 | 57 | 23 | 1.0 | 3.0 | 0.00 | 0.34 | 0.00 | 72 | 1012.0 |
| 20260904080516 | 57 | 338 | 1.0 | 2.0 | 0.00 | 0.34 | 0.00 | 73 | 1011.9 |
| 20260904075016 | 56 | 248 | 1.0 | 3.0 | 0.00 | 0.34 | 0.00 | 72 | 1011.7 |
| 20260904073516 | 55 | 0 | 2.0 | 4.0 | 0.00 | 0.34 | 0.00 | 72 | 1011.5 |
| 20260904072016 | 56 | 0 | 2.0 | 5.0 | 0.00 | 0.34 | 0.00 | 71 | 1011.5 |
| 20260904070516 | 56 | 338 | 1.0 | 2.0 | 0.00 | 0.34 | 0.00 | 71 | 1011.4 |
| 20260904065017 | 56 | 293 | 1.0 | 3.0 | 0.00 | 0.34 | 0.34 | 71 | 1011.5 |
| 20260904063517 | 56 | 0 | 3.0 | 7.0 | 0.00 | 0.34 | 0.34 | 71 | 1011.3 |
| 20260904062017 | 55 | 315 | 2.0 | 5.0 | 0.00 | 0.34 | 0.34 | 72 | 1011.5 |
| 20260904060517 | 57 | 0 | 3.0 | 5.0 | 0.00 | 0.34 | 0.34 | 69 | 1011.5 |
| 20260904055017 | 57 | 315 | 2.0 | 6.0 | 0.00 | 0.34 | 0.34 | 68 | 1011.4 |
| 20260904053557 | 57 | 0 | 3.0 | 5.0 | 0.00 | 0.34 | 0.34 | 69 | 1011.4 |
| 20260904052036 | 56 | 315 | 1.0 | 3.0 | 0.00 | 0.34 | 0.34 | 70 | 1011.3 |
| 20260904050537 | 57 | 315 | 2.0 | 4.0 | 0.00 | 0.34 | 0.34 | 67 | 1011.3 |
| 20260904045037 | 57 | 270 | 1.0 | 3.0 | 0.00 | 0.34 | 0.34 | 69 | 1011.2 |
| 20260904043516 | 56 | 270 | 1.0 | 3.0 | 0.00 | 0.34 | 0.34 | 71 | 1011.0 |
| 20260904042017 | 57 | 315 | 1.0 | 2.0 | 0.00 | 0.34 | 0.34 | 69 | 1011.2 |
| 20260904040516 | 57 | 0.0 | 1.0 | 0.00 | 0.34 | 0.34 | 69 | 1011.1 | |
| 20260904035016 | 58 | 338 | 1.0 | 2.0 | 0.00 | 0.34 | 0.34 | 68 | 1011.1 |